TimeEST,TemperatureF,Dew PointF,Humidity,Sea Level PressureIn,VisibilityMPH,Wind Direction,Wind SpeedMPH,Gust SpeedMPH,PrecipitationIn,Events,Conditions,WindDirDegrees,DateUTC
12:15 AM,50.0,46.4,87,30.02,10.0,SW,4.6,-,N/A,Rain,Light Rain,220,2013-12-04 05:15:00
12:35 AM,50.0,46.4,87,30.01,7.0,Calm,Calm,-,0.02,Rain,Light Rain,0,2013-12-04 05:35:00
12:55 AM,50.0,48.2,94,30.00,7.0,ESE,3.5,-,0.02,Rain,Light Rain,120,2013-12-04 05:55:00
1:15 AM,50.0,48.2,94,30.00,10.0,Calm,Calm,-,N/A,,Overcast,0,2013-12-04 06:15:00
1:35 AM,48.2,48.2,100,30.01,7.0,Calm,Calm,-,N/A,,Overcast,0,2013-12-04 06:35:00
1:55 AM,48.2,48.2,100,30.01,7.0,Calm,Calm,-,N/A,,Overcast,0,2013-12-04 06:55:00
2:15 AM,48.2,48.2,100,30.02,7.0,Calm,Calm,-,N/A,,Overcast,0,2013-12-04 07:15:00
2:35 AM,50.0,48.2,94,30.02,10.0,Calm,Calm,-,N/A,,Overcast,0,2013-12-04 07:35:00
2:55 AM,50.0,48.2,94,30.02,10.0,Calm,Calm,-,N/A,,Overcast,0,2013-12-04 07:55:00
3:15 AM,50.0,48.2,94,30.02,10.0,Calm,Calm,-,N/A,,Overcast,0,2013-12-04 08:15:00
3:35 AM,50.0,46.4,87,30.02,10.0,Calm,Calm,-,N/A,Rain,Light Rain,0,2013-12-04 08:35:00
3:55 AM,50.0,48.2,94,30.02,7.0,Calm,Calm,-,0.01,Rain,Rain,0,2013-12-04 08:55:00
4:15 AM,48.2,48.2,100,30.02,7.0,Calm,Calm,-,N/A,Rain,Light Rain,0,2013-12-04 09:15:00
4:35 AM,50.0,50.0,100,30.02,5.0,Calm,Calm,-,N/A,,Overcast,0,2013-12-04 09:35:00
4:55 AM,48.2,48.2,100,30.02,4.0,Calm,Calm,-,N/A,,Overcast,0,2013-12-04 09:55:00
5:15 AM,48.2,48.2,100,30.02,4.0,Calm,Calm,-,N/A,,Overcast,0,2013-12-04 10:15:00
5:35 AM,48.2,48.2,100,30.02,4.0,Calm,Calm,-,N/A,,Overcast,0,2013-12-04 10:35:00
5:55 AM,50.0,50.0,100,30.03,1.8,Calm,Calm,-,N/A,,Overcast,0,2013-12-04 10:55:00
6:15 AM,50.0,50.0,100,30.04,3.0,Calm,Calm,-,N/A,,Overcast,0,2013-12-04 11:15:00
6:35 AM,48.2,48.2,100,30.03,3.0,Calm,Calm,-,N/A,,Overcast,0,2013-12-04 11:35:00
6:55 AM,50.0,50.0,100,30.04,3.0,Calm,Calm,-,N/A,,Overcast,0,2013-12-04 11:55:00
7:15 AM,50.0,50.0,100,30.04,2.0,Calm,Calm,-,N/A,,Heavy Drizzle,0,2013-12-04 12:15:00
7:35 AM,50.0,50.0,100,30.05,3.0,Calm,Calm,-,0.01,,Light Drizzle,0,2013-12-04 12:35:00
7:55 AM,50.0,50.0,100,30.06,3.0,Calm,Calm,-,0.01,,Overcast,0,2013-12-04 12:55:00
8:15 AM,50.0,50.0,100,30.06,3.0,Calm,Calm,-,N/A,,Overcast,0,2013-12-04 13:15:00
8:35 AM,50.0,50.0,100,30.07,2.5,Calm,Calm,-,N/A,,Overcast,0,2013-12-04 13:35:00
8:55 AM,50.0,50.0,100,30.07,2.5,Calm,Calm,-,N/A,,Overcast,0,2013-12-04 13:55:00
9:15 AM,51.8,51.8,100,30.08,3.0,Calm,Calm,-,N/A,,Overcast,0,2013-12-04 14:15:00
9:35 AM,51.8,51.8,100,30.08,2.5,Calm,Calm,-,N/A,,Overcast,0,2013-12-04 14:35:00
9:55 AM,51.8,51.8,100,30.09,2.0,Calm,Calm,-,N/A,,Overcast,0,2013-12-04 14:55:00
10:15 AM,53.6,53.6,100,30.10,2.0,Calm,Calm,-,N/A,,Overcast,0,2013-12-04 15:15:00
10:35 AM,53.6,53.6,100,30.10,2.0,Calm,Calm,-,N/A,,Overcast,0,2013-12-04 15:35:00
10:55 AM,53.6,53.6,100,30.10,2.0,South,3.5,-,N/A,,Overcast,180,2013-12-04 15:55:00
11:15 AM,53.6,53.6,100,30.09,1.5,Calm,Calm,-,N/A,,Overcast,0,2013-12-04 16:15:00
11:35 AM,53.6,53.6,100,30.09,1.5,Calm,Calm,-,N/A,,Overcast,0,2013-12-04 16:35:00
11:55 AM,53.6,53.6,100,30.08,1.5,Calm,Calm,-,N/A,,Overcast,0,2013-12-04 16:55:00
12:15 PM,55.4,55.4,100,30.07,3.0,Calm,Calm,-,N/A,,Overcast,0,2013-12-04 17:15:00
12:35 PM,55.4,55.4,100,30.07,5.0,Calm,Calm,-,N/A,,Overcast,0,2013-12-04 17:35:00
12:55 PM,55.4,55.4,100,30.05,5.0,Calm,Calm,-,N/A,,Overcast,0,2013-12-04 17:55:00
1:15 PM,57.2,55.4,94,30.05,7.0,Calm,Calm,-,N/A,,Overcast,0,2013-12-04 18:15:00
1:35 PM,57.2,53.6,88,30.04,10.0,Calm,Calm,-,N/A,,Overcast,0,2013-12-04 18:35:00
1:55 PM,59.0,53.6,82,30.03,10.0,Calm,Calm,-,N/A,,Overcast,0,2013-12-04 18:55:00
2:15 PM,59.0,53.6,82,30.03,10.0,Calm,Calm,-,N/A,,Overcast,0,2013-12-04 19:15:00
2:35 PM,59.0,55.4,88,30.03,10.0,East,4.6,-,N/A,,Overcast,100,2013-12-04 19:35:00
2:55 PM,59.0,55.4,88,30.02,10.0,North,-9999.0,-,N/A,,Overcast,0,2013-12-04 19:55:00
3:15 PM,59.0,55.4,88,30.03,10.0,Calm,Calm,-,N/A,,Overcast,0,2013-12-04 20:15:00
3:35 PM,59.0,55.4,88,30.04,10.0,Calm,Calm,-,N/A,,Overcast,0,2013-12-04 20:35:00
3:55 PM,59.0,53.6,82,30.04,10.0,Calm,Calm,-,N/A,,Overcast,0,2013-12-04 20:55:00
4:15 PM,59.0,53.6,82,30.04,10.0,Calm,Calm,-,N/A,,Overcast,0,2013-12-04 21:15:00
4:35 PM,59.0,55.4,88,30.05,10.0,Calm,Calm,-,N/A,,Overcast,0,2013-12-04 21:35:00
4:55 PM,59.0,55.4,88,30.05,10.0,Calm,Calm,-,N/A,,Overcast,0,2013-12-04 21:55:00
5:15 PM,57.2,55.4,94,30.06,10.0,Calm,Calm,-,N/A,,Overcast,0,2013-12-04 22:15:00
5:35 PM,55.4,55.4,100,30.06,10.0,Calm,Calm,-,N/A,,Overcast,0,2013-12-04 22:35:00
5:55 PM,57.2,55.4,94,30.06,10.0,Calm,Calm,-,N/A,,Overcast,0,2013-12-04 22:55:00
6:15 PM,55.4,55.4,100,30.07,10.0,Calm,Calm,-,N/A,,Overcast,0,2013-12-04 23:15:00
6:35 PM,55.4,55.4,100,30.07,10.0,Calm,Calm,-,N/A,,Overcast,0,2013-12-04 23:35:00
6:55 PM,55.4,53.6,94,30.07,10.0,Calm,Calm,-,N/A,,Overcast,0,2013-12-04 23:55:00
7:15 PM,55.4,55.4,100,30.08,10.0,Calm,Calm,-,N/A,,Overcast,0,2013-12-05 00:15:00
7:35 PM,55.4,55.4,100,30.08,10.0,SW,3.5,-,N/A,,Overcast,230,2013-12-05 00:35:00
7:55 PM,55.4,55.4,100,30.07,10.0,Calm,Calm,-,N/A,,Mostly Cloudy,0,2013-12-05 00:55:00
8:15 PM,55.4,55.4,100,30.07,10.0,Calm,Calm,-,N/A,,Mostly Cloudy,0,2013-12-05 01:15:00
8:35 PM,55.4,53.6,94,30.07,7.0,Calm,Calm,-,N/A,,Overcast,0,2013-12-05 01:35:00
8:55 PM,55.4,55.4,100,30.07,10.0,Calm,Calm,-,N/A,,Overcast,0,2013-12-05 01:55:00
9:15 PM,55.4,55.4,100,30.08,10.0,Calm,Calm,-,N/A,,Overcast,0,2013-12-05 02:15:00
9:35 PM,53.6,53.6,100,30.08,5.0,Calm,Calm,-,N/A,,Overcast,0,2013-12-05 02:35:00
9:55 PM,53.6,53.6,100,30.09,3.0,Calm,Calm,-,N/A,,Mostly Cloudy,0,2013-12-05 02:55:00
10:15 PM,51.8,51.8,100,30.10,1.0,Calm,Calm,-,N/A,,Overcast,0,2013-12-05 03:15:00
10:35 PM,51.8,51.8,100,30.10,1.0,Calm,Calm,-,N/A,,Overcast,0,2013-12-05 03:35:00
10:55 PM,51.8,51.8,100,30.10,1.2,Calm,Calm,-,N/A,,Overcast,0,2013-12-05 03:55:00
11:15 PM,53.6,53.6,100,30.10,1.5,Calm,Calm,-,N/A,,Overcast,0,2013-12-05 04:15:00
11:35 PM,51.8,51.8,100,30.10,3.0,SSW,3.5,-,N/A,,Overcast,200,2013-12-05 04:35:00
11:55 PM,51.8,51.8,100,30.10,4.0,SSW,3.5,-,N/A,,Mostly Cloudy,200,2013-12-05 04:55:00